Regional Weather Roundup
Issued by NWS

Home | Current Version | Previous Version | Text Only | Print | Product List | Glossary On
Versions: 1 2 3 4 5 6 7 8 9 10 11 12 13 14 15 16 17 18 19 20 21 22 23 24 25 26 27 28 29 30 31 32 33 34 35 36 37 38 39 40 41 42 43 44 45 46 47 48 49 50
169
ASUS43 KMKX 250311
RWRWI

WISCONSIN REGIONAL WEATHER ROUNDUP
NATIONAL WEATHER SERVICE MILWAUKEE/SULLIVAN WI
900 PM CST FRI FEB 24 2017

NOTE: "FAIR" INDICATES FEW OR NO CLOUDS BELOW 12,000 FEET WITH NO
SIGNIFICANT WEATHER AND/OR OBSTRUCTIONS TO VISIBILITY.

WIZ001-002-006>008-014>016-023>028-250400-
NORTHWEST WISCONSIN

CITY           SKY/WX    TMP DP  RH WIND       PRES   REMARKS
SUPERIOR ARPT  CLOUDY    20   8  60 N13       29.91R WCI   7
ASHLAND        CLOUDY    20   9  62 N12       29.84F WCI   8
HAYWARD        CLOUDY    19   7  59 VRB3      29.81S
SIREN          MOCLDY    21   9  58 N10G17    29.87R WCI  10
CUMBERLAND     CLOUDY    19  10  68 N13       29.81S WCI   7
RICE LAKE      CLOUDY    20  10  67 N7G16     29.83S WCI  11
CHETEK         CLOUDY    19  11  70 N9        29.82S WCI   8
LADYSMITH      LGT SNOW  17  13  86 NW12      29.79S WCI   4
EAU CLAIRE     LGT SNOW  18  14  84 N10       29.81R VSB 3/4 WCI   6
MENOMONIE      LGT SNOW  19  16  86 N7        29.83R WCI  10
NEW RICHMOND   CLOUDY    22  11  63 N16       29.85S WCI   8
OSCEOLA        CLOUDY    22  10  59 N10       29.90S WCI  11
$$

WIZ003>005-009-010-017-018-250400-
NORTH CENTRAL WISCONSIN

CITY           SKY/WX    TMP DP  RH WIND       PRES   REMARKS
MANITOWISH WTR LGT SNOW  16  14  93 N12G17    29.70S WCI   2
ARBOR VITAE    LGT SNOW  19  15  85 N14G20      N/A  WCI   6
WOODRUFF       LGT SNOW  19  15  85 N14G20      N/A  WCI   6
RHINELANDER    LGT SNOW  18  14  84 N12G18    29.67R VSB 1   WCI   5
EAGLE RIVER    LGT SNOW  17  12  82 N14       29.65F WCI   3
LAND O LAKES   LGT SNOW  17  15  88 N10       29.67F WCI   5
PHILLIPS       LGT SNOW  16  13  90 N8        29.73R WCI   5
TOMAHAWK       LGT SNOW  17  14  88 NW8       29.70R WCI   7
MEDFORD        LGT SNOW  17  13  84 N16       29.69S WCI   1
MERRILL        NOT AVBL
$$

WIZ029-030-035-036-043>047-250400-
CENTRAL WISCONSIN

CITY           SKY/WX    TMP DP  RH WIND       PRES   REMARKS
WAUSAU         LGT SNOW  19  15  84 N12G20    29.66R FOG     WCI   7
MOSINEE        LGT SNOW  19  18  93 N15G21    29.67S WCI   5
MARSHFIELD     LGT SNOW  19  15  84 N13       29.68R VSB 1   WCI   6
STEVENS POINT  MIX PCPN  18  15  88 N9        29.66F WCI   7
WAUPACA        CLOUDY    24  21  87 NW10G17   29.64S FOG     WCI  14
WAUTOMA        LGT SNOW  23  21  93 NW9       29.65S FOG     WCI  13
WISC RAPIDS    LGT SNOW  21  17  84 N20G25    29.68S FOG     WCI   6
CAMP DOUGLAS   LGT SNOW  22  18  85 NW9       29.69R FOG     WCI  12
$$

WIZ011>013-019>022-031-037>040-048>050-250400-
NORTHEAST WISCONSIN

CITY           SKY/WX    TMP DP  RH WIND       PRES   REMARKS
ANTIGO         LGT SNOW  17  14  88 N15G21    29.63R WCI   2
SHAWANO        MIX PCPN  24  21  88 CALM      29.64S
OCONTO         CLOUDY    23  21  91 N12       29.59F WCI  12
STURGEON BAY   MIX PCPN  27  25  92 MISG      29.56S FOG
GREEN BAY      LGT SNOW  25  24  96 NW13      29.60R FOG     WCI  14
MANITOWOC      MIX PCPN  26  24  92 NW18G24   29.56R FOG     WCI  13
APPLETON       CLOUDY    25  23  93 N13       29.59R FOG     WCI  13
CLINTONVILLE   LGT SNOW  23  21  93 N9        29.64S WCI  13
OSHKOSH        LGT SNOW  25  23  92 N17       29.60S FOG     WCI  12
$$

WIZ032>034-041-042-053>061-250400-
SOUTHWEST WISCONSIN

CITY           SKY/WX    TMP DP  RH WIND       PRES   REMARKS
LA CROSSE      CLOUDY    23  18  81 N22       29.77R HAZE    WCI   8
SPARTA         LGT SNOW  22  19  90 NW13G20   29.74R WCI  10
VIROQUA        CLOUDY    21  20  93 N9        29.69R WCI  11
BOSCOBEL       LGT SNOW  27  21  78 N14G20    29.70R WCI  16
PRAIRIE DU CHI LGT SNOW  25  21  85 NW16G25   29.73R WCI  12
PLATTEVILLE    CLOUDY    28  27  99 NW6       29.66R WCI  21
$$

WIZ056-057-062-063-064-067-068-250400-
SOUTH CENTRAL WISCONSIN

CITY           SKY/WX    TMP DP  RH WIND       PRES   REMARKS
REEDSBURG      FLURRIES  24  22  90 N15       29.66R WCI  11
BARABOO/DELLS  CLOUDY    24  22  93 N7        29.64S WCI  16
LONE ROCK      LGT SNOW  27  21  78 N12       29.68R WCI  17
MINERAL POINT  LGT SNOW  28  28 100 NW3       29.64S
MADISON        FRZ DRZL  26  24  92 NW13G20   29.62S FOG     WCI  15
MIDDLETON      CLOUDY    28  28  97 N6        29.63S WCI  22
WATERTOWN      CLOUDY    27  26  99 N12G17    29.60R WCI  16
MONROE         CLOUDY    28  27  93 N7        29.62R FOG     WCI  21
JANESVILLE     CLOUDY    28  28 100 N8G14     29.62R FOG     WCI  20
$$

WIZ051-052-058>065-066-070>072-250400-
SOUTHEAST WISCONSIN

CITY           SKY/WX    TMP DP  RH WIND       PRES   REMARKS
MILWAUKEE      LGT SNOW  31  28  89 NW14      29.56S FOG     WCI  21
WAUKESHA       LGT SNOW  27  27 100 NW10      29.58R WCI  17
MILWAUKEE/TIMM LGT SNOW  28  25  86 NW9       29.58R WCI  20
RACINE         LGT SNOW  32  29  88 NW10      29.58R FOG     WCI  24
KENOSHA        CLOUDY    32  28  85 NW15      29.56S WCI  22
FOND DU LAC    LGT SNOW  26  22  84 N14       29.60S FOG     WCI  14
SHEBOYGAN      FRZ RAIN  26  23  88 N17G25    29.55R FOG     WCI  13
WEST BEND      CLOUDY    27  27 100 NW3       29.57R FOG
JUNEAU         CLOUDY    25  24  93 N7        29.61R WCI  18
$$

LSZ147-162-250400-
LAKE SUPERIOR

STATION/POSITION TIME  TEMP    WIND        PRES    WAVE
                       AIR SEA DIR/SP/G            HT/PER
                 (UTC) (F)     (DEG/KT/KT) (MB)    (FT/S)
DEVILS ISLAND    0200   21      10/ 15/ 18 1012.2F
PORT WING        0240   22     350/ 18/ 23 1011.9S
SAXON HARBOR     0240   22      10/ 17/ 20 1010.2F
$$

LMZ867-665-643>646-250400-
LAKE MICHIGAN

STATION/POSITION TIME  TEMP    WIND        PRES    WAVE
                       AIR SEA DIR/SP/G            HT/PER
                 (UTC) (F)     (DEG/KT/KT) (MB)    (FT/S)
CHAMBERS ISLAND  0140   27     350/  4/  5 1001.4F
NORTHPORT PIER   0240   27      10/  4/  5 1001.4F
SISTER BAY       0235   27        CALM       N/A
KEWAUNEE LAKESHO 0248   27     350/ 12/ 20 1000.1F
SHEBOYGAN LAKESH 0300   27     330/  7/  9 1001.3R
PORT WASHINGTON  0230   29     310/  8/ 14 1002.4R
MILWAUKEE LAKESH 0250   30     310/  9/ 11   N/A
KENOSHA   LAKESH 0250   32     290/ 10/ 15 1001.7R
$$

TC  - TEMPERATURE IN CELSIUS
VSB - VISIBILITY IN STATUTE MILES
WCI - WIND CHILL INDEX
HX  - HEAT INDEX





USA.gov is the U.S. government's official web portal to all federal, state and local government web resources and services.